Saint Paul Island, AK

1:01 AM AKST on January 21, 2018 (GMT -0900)
Saint Paul Island

Weather History for PASN - July, 2013

Change the Weather History Date:

Friday, July 19, 2013

  Actual Average Record
Temperature  
Mean Temperature 46 °F 48 °F  
Max Temperature 48 °F 51 °F 63 °F (1977)
Min Temperature 43 °F 44 °F 32 °F (1980)
Degree Days  
Heating Degree Days 19 17  
Month to date heating degree days 384 349  
Since 1 June heating degree days 1094 1027  
Since 1 July heating degree days 384 349  
Cooling Degree Days 0 0  
Month to date cooling degree days 0 0  
Year to date cooling degree days 0 0  
Since 1 June cooling degree days 0 0  
Moisture  
Dew Point 46 °F    
Average Humidity 0    
Maximum Humidity 0    
Minimum Humidity 0    
Precipitation  
Precipitation 0.16 in 0.05 in 0.84 in (1999)
Month to date precipitation 1.11 1.02  
Year to date precipitation 9.84 8.53  
Snow  
Snow 0.00 in 0.00 in - ()
Month to date snowfall 0.0 0.0  
Since 1 June snowfall 0.0 T  
Since 1 July snowfall 0.0 0.0  
Snow Depth 0.00 in    
Sea Level Pressure  
Sea Level Pressure 30.35 in    
Wind  
Wind Speed 6 mph (ESE)    
Max Wind Speed 9 mph    
Max Gust Speed 12 mph    
Visibility 2 miles    
Events Fog , Rain    
T = Trace of Precipitation, MM = Missing Value Source: NWS Daily Summary

Daily Weather History Graph

Daily Weather History Graph

Search for Another Location

Airport or City:

Trip Planner

Search our weather history database for the weather conditions in past years. The results will help you decide how hot, cold, wet, or windy it might be!

Date:

Astronomy

Jul. 19, 2013 Rise Set
Actual Time 6:55 AM AKDT 11:57 PM AKDT
Civil Twilight 5:57 AM AKDT 12:55 AM AKDT
Nautical Twilight 3:42 AM AKDT 2:57 AM AKDT
Astronomical Twilight Sun does not rise Sun does not rise
Moon 9:12 PM AKDT (7/19) 3:53 AM AKDT (7/19)
Length of Visible Light 18h 58m
Length of Day
17h 02m
Waxing Gibbous, 88% of the Moon is Illuminated
Jul 19
Waxing Gibbous
Jul 22
Full
Jul 29
Last Quarter
Aug 6
New
Aug 14
First Quarter

Hourly Weather History & Observations

Time (AKDT) Temp. Windchill Dew Point Humidity Pressure Visibility Wind Dir Wind Speed Gust Speed Precip Events Conditions
12:53 AM 44.1 °F 40.8 °F 44.1 °F 100% 30.32 in 0.5 mi SSW 5.8 mph - N/A Fog Fog
1:53 AM 44.1 °F 40.1 °F 44.1 °F 100% 30.32 in 0.5 mi SSW 6.9 mph - N/A Fog Fog
2:53 AM 44.1 °F 40.1 °F 44.1 °F 100% 30.33 in 0.2 mi South 6.9 mph - N/A Fog Fog
3:53 AM 43.0 °F 39.5 °F 43.0 °F 100% 30.32 in 0.5 mi SSW 5.8 mph - N/A Fog Fog
4:46 AM 44.6 °F 40.2 °F 44.6 °F 100% 30.33 in 1.0 mi SW 8.1 mph - N/A   Overcast
4:53 AM 44.1 °F 40.1 °F 44.1 °F 100% 30.33 in 1.5 mi SW 6.9 mph - N/A   Overcast
5:10 AM 44.6 °F 40.2 °F 44.6 °F 100% 30.33 in 0.5 mi WSW 8.1 mph - N/A Fog Fog
5:53 AM 44.1 °F 40.1 °F 44.1 °F 100% 30.32 in 0.5 mi SW 6.9 mph - N/A Fog Fog
6:53 AM 44.1 °F 42.5 °F 44.1 °F 100% 30.33 in 0.5 mi WSW 3.5 mph - N/A Fog Fog
7:53 AM 44.1 °F - 44.1 °F 100% 30.34 in 0.1 mi Calm Calm - N/A Fog Fog
8:53 AM 44.1 °F - 44.1 °F 100% 30.34 in 0.1 mi Calm Calm - N/A Fog Fog
9:53 AM 44.1 °F 41.5 °F 44.1 °F 100% 30.35 in 0.8 mi SSE 4.6 mph - N/A   Mist
10:53 AM 45.0 °F 41.2 °F 45.0 °F 100% 30.35 in 0.5 mi SSE 6.9 mph - N/A Fog Fog
11:53 AM 46.0 °F 43.1 °F 46.0 °F 100% 30.36 in 0.2 mi SSE 5.8 mph - N/A Fog Fog
12:53 PM 46.9 °F - 46.9 °F 100% 30.38 in 0.8 mi SE 3.5 mph - N/A   Mist
1:04 PM 46.4 °F 44.3 °F 46.4 °F 100% 30.37 in 1.2 mi SE 4.6 mph - N/A   Overcast
1:15 PM 46.4 °F 43.5 °F 46.4 °F 100% 30.36 in 0.8 mi SE 5.8 mph - N/A   Mist
1:48 PM 48.2 °F - 48.2 °F 100% 30.37 in 2.5 mi SE 4.6 mph - N/A   Overcast
1:53 PM 48.0 °F - 48.0 °F 100% 30.38 in 2.5 mi SE 4.6 mph - N/A   Overcast
2:01 PM 48.2 °F - 48.2 °F 100% 30.37 in 0.8 mi SE 4.6 mph - N/A   Overcast
2:15 PM 46.4 °F 43.5 °F 46.4 °F 100% 30.36 in 0.5 mi SE 5.8 mph - N/A Fog Fog
2:25 PM 46.4 °F 42.9 °F 46.4 °F 100% 30.36 in 1.0 mi SE 6.9 mph - N/A   Overcast
2:36 PM 46.4 °F 42.9 °F 46.4 °F 100% 30.37 in 0.8 mi SE 6.9 mph - N/A   Mist
2:53 PM 46.0 °F 43.9 °F 46.0 °F 100% 30.37 in 0.8 mi ESE 4.6 mph - N/A   Mist
3:07 PM 46.4 °F 42.9 °F 46.4 °F 100% 30.36 in 1.5 mi SE 6.9 mph - N/A   Overcast
3:40 PM 46.4 °F 42.9 °F 46.4 °F 100% 30.37 in 0.5 mi ESE 6.9 mph - 0.00 in Fog , Rain Light Rain
3:53 PM 46.9 °F - 46.9 °F 100% 30.37 in 0.5 mi SE 6.9 mph - 0.00 in Fog , Rain Light Rain
4:13 PM 46.4 °F 43.5 °F 46.4 °F 100% 30.36 in 1.0 mi ESE 5.8 mph - 0.00 in   Mist
4:30 PM 46.4 °F 43.5 °F 46.4 °F 100% 30.38 in 2.5 mi ESE 5.8 mph - 0.00 in   Overcast
4:41 PM 46.4 °F 44.3 °F 46.4 °F 100% 30.38 in 3.0 mi East 4.6 mph - 0.00 in   Overcast
4:53 PM 46.0 °F 43.9 °F 46.0 °F 100% 30.38 in 5.0 mi ESE 4.6 mph - 0.00 in   Overcast
5:35 PM 46.4 °F 43.5 °F 46.4 °F 100% 30.36 in 7.0 mi ENE 5.8 mph - N/A   Overcast
5:53 PM 48.0 °F - 48.0 °F 100% 30.37 in 10.0 mi East 5.8 mph - 0.00 in   Overcast
6:26 PM 46.4 °F 43.5 °F 46.4 °F 100% 30.35 in 1.8 mi East 5.8 mph - 0.00 in Rain Light Rain
6:36 PM 48.2 °F - 48.2 °F 100% 30.36 in 3.0 mi East 5.8 mph - 0.00 in   Overcast
6:53 PM 48.0 °F - 48.0 °F 100% 30.35 in 6.0 mi East 6.9 mph - 0.00 in Rain Light Rain
7:53 PM 46.9 °F - 46.9 °F 100% 30.35 in 3.0 mi ENE 8.1 mph - 0.00 in Rain Light Rain
8:11 PM 46.4 °F 42.4 °F 46.4 °F 100% 30.35 in 2.0 mi ENE 8.1 mph - 0.00 in Rain Light Rain
8:18 PM 46.4 °F 42.4 °F 46.4 °F 100% 30.35 in 1.2 mi ENE 8.1 mph - 0.00 in Rain Light Rain
8:48 PM 46.4 °F 42.4 °F 46.4 °F 100% 30.35 in 2.5 mi East 8.1 mph - 0.01 in Rain Light Rain
8:53 PM 46.9 °F - 46.9 °F 100% 30.35 in 4.0 mi East 9.2 mph - 0.01 in Rain Light Rain
9:21 PM 46.4 °F 41.9 °F 46.4 °F 100% 30.35 in 1.8 mi East 9.2 mph - 0.02 in Rain Light Rain
9:42 PM 46.4 °F 42.4 °F 46.4 °F 100% 30.34 in 2.0 mi East 8.1 mph - 0.03 in Rain Light Rain
9:53 PM 46.0 °F 42.5 °F 46.0 °F 100% 30.35 in 2.5 mi ENE 6.9 mph - 0.04 in Rain Light Rain
10:13 PM 46.4 °F 42.9 °F 46.4 °F 100% 30.35 in 2.0 mi ENE 6.9 mph - 0.02 in Rain Light Rain
10:31 PM 46.4 °F 41.9 °F 46.4 °F 100% 30.34 in 2.5 mi East 9.2 mph - 0.05 in Rain Light Rain
10:49 PM 46.4 °F 42.9 °F 46.4 °F 100% 30.33 in 1.5 mi ENE 6.9 mph - 0.06 in Rain Light Rain
10:53 PM 46.0 °F 43.1 °F 46.0 °F 100% 30.33 in 1.5 mi East 5.8 mph - 0.07 in Rain Light Rain
11:00 PM 46.4 °F 42.9 °F 46.4 °F 100% 30.33 in 2.0 mi East 6.9 mph - 0.00 in Rain Light Rain
11:18 PM 46.4 °F 42.9 °F 46.4 °F 100% 30.33 in 1.8 mi East 6.9 mph - 0.01 in Rain Light Rain
11:31 PM 46.4 °F 42.9 °F 46.4 °F 100% 30.33 in 1.0 mi East 6.9 mph - 0.01 in Rain Light Rain
11:33 PM 46.4 °F 43.5 °F 46.4 °F 100% 30.33 in 0.8 mi East 5.8 mph - 0.01 in Rain Light Rain
11:53 PM 45.0 °F 41.8 °F 45.0 °F 100% 30.35 in 0.5 mi East 5.8 mph - 0.02 in Fog , Rain Light Rain